Location: Casco Millpond
(44.5581°N, 87.6111°W)
Time: 08:09:01
(UTC+00:00)

BlueWalker 3 - Visible Passes

Search period start: 12 March 2026 00:00
Search period end: 22 March 2026 00:00
Orbit: 451 x 458 km, 53.2° (Epoch: 11 March)

Date Brightness Start Highest point End Pass type
(mag) Time Alt. Az. Time Alt. Az. Time Alt. Az.
12 Mar 3.6 10:03:56 22° N 10:04:43 24° NNE 10:07:43 10° ENE visible
13 Mar 4.1 09:29:12 21° NNE 09:29:12 21° NNE 09:31:20 10° ENE visible
13 Mar 2.2 11:02:53 10° NW 11:06:25 61° NNE 11:09:57 10° ESE visible
14 Mar 5.1 08:54:32 12° NE 08:54:32 12° NE 08:54:58 10° ENE visible
14 Mar 2.5 10:28:14 23° NW 10:30:12 49° NNE 10:33:41 10° ESE visible
15 Mar 2.8 09:53:40 39° N 09:53:57 40° NNE 09:57:22 10° E visible
15 Mar 2.5 11:28:03 10° WNW 11:31:22 35° SW 11:34:39 10° SSE visible
16 Mar 4.1 09:19:13 23° ENE 09:19:13 23° ENE 09:21:00 10° E visible
16 Mar 2.0 10:52:56 19° WNW 10:55:13 47° SW 10:58:40 10° SE visible
17 Mar 1.7 10:18:40 58° WSW 10:19:02 63° SW 10:22:35 10° SE visible
18 Mar 3.3 09:44:36 28° SE 09:44:36 28° SE 09:46:26 10° SE visible
18 Mar 3.8 11:18:21 10° WSW 11:19:43 12° SW 11:21:05 10° SSW visible
19 Mar 3.7 10:44:31 15° SSW 10:44:31 15° SSW 10:45:51 10° SSW visible
21 Mar 4.1 01:20:38 10° SSE 01:20:57 11° SSE 01:20:57 11° SSE visible
